TimeAKST,TemperatureF,Dew PointF,Humidity,Sea Level PressureIn,VisibilityMPH,Wind Direction,Wind SpeedMPH,Gust SpeedMPH,PrecipitationIn,Events,Conditions,WindDirDegrees,DateUTC
12:16 AM,-36.4,-9999,N/A,30.29,10.0,Calm,Calm,-,N/A,,Unknown,0,2013-02-19 09:16:00
12:36 AM,-36.4,-9999,N/A,30.29,10.0,Calm,Calm,-,N/A,,Unknown,0,2013-02-19 09:36:00
12:56 AM,-36.4,-9999,N/A,30.29,10.0,Calm,Calm,-,N/A,,Unknown,0,2013-02-19 09:56:00
1:16 AM,-34.6,-9999,N/A,30.29,10.0,East,3.5,-,N/A,,Unknown,100,2013-02-19 10:16:00
1:36 AM,-32.8,-9999,N/A,30.28,10.0,Calm,Calm,-,N/A,,Unknown,0,2013-02-19 10:36:00
1:56 AM,-34.6,-9999,N/A,30.26,10.0,Calm,Calm,-,N/A,,Unknown,0,2013-02-19 10:56:00
2:16 AM,-31.0,-9999,N/A,30.24,10.0,Calm,Calm,-,N/A,,Unknown,0,2013-02-19 11:16:00
2:36 AM,-36.4,-9999,N/A,30.24,10.0,Calm,Calm,-,N/A,,Unknown,0,2013-02-19 11:36:00
2:56 AM,-34.6,-9999,N/A,30.24,10.0,Calm,Calm,-,N/A,,Unknown,0,2013-02-19 11:56:00
3:16 AM,-36.4,-9999,N/A,30.24,10.0,Calm,Calm,-,N/A,,Unknown,0,2013-02-19 12:16:00
3:36 AM,-36.4,-9999,N/A,30.23,10.0,Calm,Calm,-,N/A,,Unknown,0,2013-02-19 12:36:00
3:56 AM,-34.6,-9999,N/A,30.23,10.0,Calm,Calm,-,N/A,,Unknown,0,2013-02-19 12:56:00
4:16 AM,-32.8,-32.8,100,30.22,10.0,Calm,Calm,-,N/A,,Unknown,0,2013-02-19 13:16:00
4:36 AM,-29.2,-9999,N/A,30.21,10.0,Calm,Calm,-,N/A,,Unknown,0,2013-02-19 13:36:00
4:56 AM,-31.0,-9999,N/A,30.21,10.0,Calm,Calm,-,N/A,,Unknown,0,2013-02-19 13:56:00
5:16 AM,-34.6,-9999,N/A,30.19,10.0,Calm,Calm,-,N/A,,Unknown,0,2013-02-19 14:16:00
5:36 AM,-32.8,-9999,N/A,30.18,10.0,Calm,Calm,-,N/A,,Unknown,0,2013-02-19 14:36:00
5:56 AM,-34.6,-9999,N/A,30.17,10.0,Calm,Calm,-,N/A,,Unknown,0,2013-02-19 14:56:00
6:16 AM,-34.6,-9999,N/A,30.14,10.0,Calm,Calm,-,N/A,,Unknown,0,2013-02-19 15:16:00
6:36 AM,-32.8,-9999,N/A,30.14,10.0,Calm,Calm,-,N/A,,Unknown,0,2013-02-19 15:36:00
6:56 AM,-32.8,-9999,N/A,30.12,10.0,Calm,Calm,-,N/A,,Unknown,0,2013-02-19 15:56:00
7:16 AM,-29.2,-9999,N/A,30.11,10.0,SW,3.5,-,N/A,,Unknown,230,2013-02-19 16:16:00
7:36 AM,-23.8,-9999,N/A,30.11,10.0,Calm,Calm,-,N/A,,Unknown,0,2013-02-19 16:36:00
7:56 AM,-23.8,-9999,N/A,30.11,10.0,Calm,Calm,-,N/A,,Unknown,0,2013-02-19 16:56:00
8:16 AM,-9999,-9999,N/A,30.11,10.0,Calm,Calm,-,N/A,,Unknown,0,2013-02-19 17:16:00
8:36 AM,-20.2,-9999,N/A,30.12,10.0,Calm,Calm,-,N/A,,Unknown,0,2013-02-19 17:36:00
8:56 AM,-9999,-9999,N/A,30.11,10.0,Calm,Calm,-,N/A,,Unknown,0,2013-02-19 17:56:00
9:16 AM,-16.6,-25.6,64,30.11,10.0,Calm,Calm,-,N/A,,Unknown,0,2013-02-19 18:16:00
9:36 AM,-9999,-9999,N/A,30.11,10.0,Calm,Calm,-,N/A,,Unknown,0,2013-02-19 18:36:00
9:56 AM,-16.6,-27.4,58,30.10,10.0,Calm,Calm,-,N/A,,Unknown,0,2013-02-19 18:56:00
10:16 AM,-9999,-9999,N/A,30.09,10.0,Calm,Calm,-,N/A,,Unknown,0,2013-02-19 19:16:00
10:36 AM,-20.2,-9999,N/A,30.09,10.0,Calm,Calm,-,N/A,,Unknown,0,2013-02-19 19:36:00
10:56 AM,-9999,-9999,N/A,30.08,10.0,Calm,Calm,-,N/A,,Unknown,0,2013-02-19 19:56:00
11:16 AM,-16.6,-18.4,92,30.08,10.0,Calm,Calm,-,N/A,,Unknown,0,2013-02-19 20:16:00
11:36 AM,-9999,-9999,N/A,30.07,10.0,Calm,Calm,-,N/A,,Unknown,0,2013-02-19 20:36:00
11:56 AM,-20.2,-9999,N/A,30.06,10.0,North,3.5,-,N/A,,Unknown,10,2013-02-19 20:56:00
12:16 PM,-20.2,-29.2,63,30.05,10.0,Calm,Calm,-,N/A,,Unknown,0,2013-02-19 21:16:00
12:36 PM,-20.2,-27.4,69,30.04,10.0,NNW,3.5,-,N/A,,Unknown,330,2013-02-19 21:36:00
12:56 PM,-9999,-9999,N/A,30.02,10.0,Calm,Calm,-,N/A,,Unknown,0,2013-02-19 21:56:00
1:16 PM,-20.2,-9999,N/A,30.02,10.0,Calm,Calm,-,N/A,,Unknown,0,2013-02-19 22:16:00
1:36 PM,-9999,-9999,N/A,30.00,10.0,Calm,Calm,-,N/A,,Unknown,0,2013-02-19 22:36:00
1:56 PM,-20.2,-29.2,63,29.99,10.0,Calm,Calm,-,N/A,,Unknown,0,2013-02-19 22:56:00
2:16 PM,-18.4,-9999,N/A,29.99,10.0,Calm,Calm,-,N/A,,Unknown,0,2013-02-19 23:16:00
3:36 PM,-16.6,-27.4,58,29.93,10.0,Calm,Calm,-,N/A,,Unknown,0,2013-02-20 00:36:00
3:56 PM,-16.6,-27.4,58,29.92,10.0,Calm,Calm,-,N/A,,Unknown,0,2013-02-20 00:56:00
4:16 PM,-16.6,-27.4,58,29.91,10.0,Calm,Calm,-,N/A,,Unknown,0,2013-02-20 01:16:00
4:36 PM,-16.6,-29.2,53,29.90,10.0,Calm,Calm,-,N/A,,Unknown,0,2013-02-20 01:36:00
4:56 PM,-18.4,-27.4,63,29.89,10.0,Calm,Calm,-,N/A,,Unknown,0,2013-02-20 01:56:00
5:16 PM,-18.4,-9999,N/A,29.88,10.0,Calm,Calm,-,N/A,,Unknown,0,2013-02-20 02:16:00
5:36 PM,-20.2,-29.2,63,29.87,10.0,South,4.6,-,N/A,,Unknown,180,2013-02-20 02:36:00
5:56 PM,-9999,-9999,N/A,29.86,10.0,Calm,Calm,-,N/A,,Unknown,0,2013-02-20 02:56:00
6:16 PM,-23.8,-9999,N/A,29.86,10.0,Calm,Calm,-,N/A,,Unknown,0,2013-02-20 03:16:00
6:36 PM,-23.8,-29.2,76,29.86,10.0,Calm,Calm,-,N/A,,Unknown,0,2013-02-20 03:36:00
6:56 PM,-25.6,-9999,N/A,29.85,10.0,Calm,Calm,-,N/A,,Unknown,0,2013-02-20 03:56:00
7:16 PM,-27.4,-9999,N/A,29.85,10.0,Calm,Calm,-,N/A,,Unknown,0,2013-02-20 04:16:00
7:36 PM,-27.4,-9999,N/A,29.84,10.0,Calm,Calm,-,N/A,,Unknown,0,2013-02-20 04:36:00
7:56 PM,-27.4,-9999,N/A,29.83,10.0,Calm,Calm,-,N/A,,Unknown,0,2013-02-20 04:56:00
8:16 PM,-27.4,-9999,N/A,29.83,10.0,Calm,Calm,-,N/A,,Unknown,0,2013-02-20 05:16:00
8:36 PM,-27.4,-9999,N/A,29.82,10.0,Calm,Calm,-,N/A,,Unknown,0,2013-02-20 05:36:00
8:56 PM,-31.0,-9999,N/A,29.82,10.0,Calm,Calm,-,N/A,,Unknown,0,2013-02-20 05:56:00
9:16 PM,-29.2,-9999,N/A,29.82,10.0,Calm,Calm,-,N/A,,Unknown,0,2013-02-20 06:16:00
9:36 PM,-29.2,-9999,N/A,29.82,10.0,Calm,Calm,-,N/A,,Unknown,0,2013-02-20 06:36:00
9:56 PM,-29.2,-9999,N/A,29.81,10.0,Calm,Calm,-,N/A,,Unknown,0,2013-02-20 06:56:00
10:16 PM,-29.2,-9999,N/A,29.81,10.0,Calm,Calm,-,N/A,,Unknown,0,2013-02-20 07:16:00
10:36 PM,-29.2,-9999,N/A,29.80,10.0,Calm,Calm,-,N/A,,Unknown,0,2013-02-20 07:36:00
10:56 PM,-27.4,-9999,N/A,29.79,10.0,Calm,Calm,-,N/A,,Unknown,0,2013-02-20 07:56:00
11:16 PM,-29.2,-29.2,100,29.79,10.0,Calm,Calm,-,N/A,,Unknown,0,2013-02-20 08:16:00
11:36 PM,-31.0,-9999,N/A,29.78,10.0,Calm,Calm,-,N/A,,Unknown,0,2013-02-20 08:36:00
11:56 PM,-32.8,-9999,N/A,29.79,10.0,SSE,5.8,-,N/A,,Unknown,160,2013-02-20 08:56:00